Powrót do katalogu

COSMOS 1989

ETALON 1

AktywnyNaukaMEO
NORAD 19751·PAYLOAD·🇷🇺 Russia

Wystrzelony Jan 10, 1989 z Baikonur Cosmodrome

Loading…

Następne Przeloty (najbliższe 24 godziny)

TLE

ŚwieżeSource: CelesTrak SupGP

Epoka: Sep 14, 2026, 00:00 UTC

1 19751C 89001C   26257.00000000  .00000000  00000+0  00000+0 0  2578
2 19751  65.0023  69.1606 0023477 217.4675 218.7556  2.13156176    11

Śledź COSMOS 1989 w czasie rzeczywistym z AllMySat

Download on the App Store